CW8428 Weather Reports


Display with metric or nautical units.
time (UTC)temp
F
wind
direction
speed
MPH
gust
MPH
rain 1hr
in
rain 24hr
in
rain mn
in
humidity
%
barometer
mb
20260904164614 77 154 9.0 25.0 0.00 0.00 0.00 23 1015.0
20260904163630 77 140 10.0 18.0 0.00 0.00 0.00 24 1015.1
20260904162621 77 136 10.0 19.0 0.00 0.00 0.00 26 1015.0
20260904161612 77 129 8.0 17.0 0.00 0.00 0.00 23 1014.9
20260904160624 76 151 9.0 14.0 0.00 0.00 0.00 25 1014.9
20260904155612 76 171 8.0 19.0 0.00 0.00 0.00 26 1015.0
20260904154623 75 170 10.0 17.0 0.00 0.00 0.00 26 1014.9
20260904153614 75 135 11.0 20.0 0.00 0.00 0.00 26 1014.8
20260904152629 75 182 13.0 20.0 0.00 0.00 0.00 25 1014.8
20260904151620 75 164 8.0 14.0 0.00 0.00 0.00 27 1014.8
20260904150631 75 152 7.0 11.0 0.00 0.00 0.00 27 1014.8
20260904145613 74 168 8.0 19.0 0.00 0.00 0.00 26 1014.9
20260904144626 73 170 1.0 13.0 0.00 0.00 0.00 27 1014.7
20260904143634 73 140 2.0 9.0 0.00 0.00 0.00 27 1014.7
20260904142624 72 128 2.0 5.0 0.00 0.00 0.00 27 1014.7
20260904141636 71 129 3.0 14.0 0.00 0.00 0.00 26 1014.6
20260904140643 70 110 5.0 10.0 0.00 0.00 0.00 26 1014.6
20260904135628 69 142 7.0 13.0 0.00 0.00 0.00 25 1014.5
20260904134618 67 62 2.0 5.0 0.00 0.00 0.00 26 1014.5
20260904133648 67 123 3.0 6.0 0.00 0.00 0.00 26 1014.4
20260904132640 67 101 1.0 4.0 0.00 0.00 0.00 26 1014.2
20260904131614 67 100 2.0 4.0 0.00 0.00 0.00 26 1014.0
20260904130645 67 105 4.0 10.0 0.00 0.00 0.00 25 1013.8
20260904125624 66 101 7.0 10.0 0.00 0.00 0.00 26 1013.7
20260904124614 62 100 3.0 6.0 0.00 0.00 0.00 30 1013.6
20260904123648 61 111 2.0 7.0 0.00 0.00 0.00 32 1013.5
20260904122617 60 178 2.0 4.0 0.00 0.00 0.00 33 1013.4
20260904121627 61 178 2.0 6.0 0.00 0.00 0.00 34 1013.3
20260904120617 61 96 4.0 7.0 0.00 0.00 0.00 32 1013.2
20260904115622 58 111 3.0 8.0 0.00 0.00 0.00 39 1013.1
20260904114631 56 98 6.0 8.0 0.00 0.00 0.00 43 1013.1
20260904113620 57 98 3.0 6.0 0.00 0.00 0.00 42 1013.2
20260904112650 58 113 6.0 9.0 0.00 0.00 0.00 41 1013.2
20260904111639 59 83 2.0 9.0 0.00 0.00 0.00 37 1013.1
20260904110612 60 109 3.0 7.0 0.00 0.00 0.00 36 1013.1
20260904105614 60 117 2.0 9.0 0.00 0.00 0.00 35 1012.9
20260904104623 58 144 4.0 9.0 0.00 0.00 0.00 34 1012.8
20260904103631 59 107 5.0 8.0 0.00 0.00 0.00 40 1012.9
20260904102625 59 172 4.0 10.0 0.00 0.00 0.00 39 1012.8
20260904101615 59 96 5.0 8.0 0.00 0.00 0.00 38 1012.8
20260904100644 59 124 3.0 6.0 0.00 0.00 0.00 37 1012.7
20260904095645 60 113 3.0 7.0 0.00 0.00 0.00 37 1012.5
20260904094617 60 94 3.0 6.0 0.00 0.00 0.00 36 1012.4
20260904093626 61 41 4.0 9.0 0.00 0.00 0.00 35 1012.3
20260904092615 61 59 4.0 7.0 0.00 0.00 0.00 35 1012.2
20260904091644 62 97 3.0 6.0 0.00 0.00 0.00 33 1012.3
20260904090616 62 93 4.0 8.0 0.00 0.00 0.00 32 1012.1
20260904085619 62 134 2.0 5.0 0.00 0.00 0.00 34 1012.1
20260904084630 62 134 4.0 7.0 0.00 0.00 0.00 33 1012.0
20260904083641 62 96 6.0 8.0 0.00 0.00 0.00 33 1011.9
20260904082635 62 127 3.0 7.0 0.00 0.00 0.00 33 1011.9
20260904081626 63 148 3.0 8.0 0.00 0.00 0.00 34 1012.0
20260904080615 64 37 4.0 6.0 0.00 0.00 0.00 31 1011.9
20260904075617 64 135 3.0 5.0 0.00 0.00 0.00 31 1011.9
20260904074613 64 139 2.0 4.0 0.00 0.00 0.00 31 1011.9
20260904073622 64 141 2.0 6.0 0.00 0.00 0.00 31 1011.9
20260904072631 64 149 2.0 6.0 0.00 0.00 0.00 31 1011.9
20260904071641 65 136 2.0 5.0 0.00 0.00 0.00 30 1011.7
20260904070613 65 137 3.0 7.0 0.00 0.00 0.00 30 1011.8
20260904065616 66 138 2.0 4.0 0.00 0.00 0.00 29 1011.7
20260904064624 66 139 4.0 7.0 0.00 0.00 0.00 28 1011.6
20260904063613 67 144 5.0 8.0 0.00 0.00 0.00 27 1011.7
20260904062644 66 42 5.0 6.0 0.00 0.00 0.00 28 1011.5
20260904061637 66 144 2.0 7.0 0.00 0.00 0.00 29 1011.4
20260904060616 66 115 4.0 8.0 0.00 0.00 0.00 29 1011.4
20260904055620 67 119 4.0 7.0 0.00 0.00 0.00 28 1011.4
20260904054631 67 119 5.0 10.0 0.00 0.00 0.00 27 1011.4
20260904053643 68 165 6.0 8.0 0.00 0.00 0.00 28 1011.4
20260904052617 68 123 2.0 6.0 0.00 0.00 0.00 27 1011.2
20260904051628 67 98 4.0 8.0 0.00 0.00 0.00 27 1011.3
20260904050640 67 165 4.0 7.0 0.00 0.00 0.00 27 1011.2
20260904045642 68 159 3.0 7.0 0.00 0.00 0.00 29 1011.4
20260904044616 69 104 5.0 8.0 0.00 0.00 0.00 25 1011.3
20260904043627 69 128 3.0 4.0 0.00 0.00 0.00 25 1011.4
20260904042616 68 92 2.0 7.0 0.00 0.00 0.00 26 1011.4
20260904041626 68 100 5.0 8.0 0.00 0.00 0.00 26 1011.4
20260904040622 69 117 4.0 7.0 0.00 0.00 0.00 26 1011.3
20260904035645 70 111 3.0 6.0 0.00 0.00 0.00 25 1011.3
20260904034614 70 103 2.0 6.0 0.00 0.00 0.00 25 1011.2
20260904033645 71 109 4.0 6.0 0.00 0.00 0.00 25 1011.2
20260904032619 73 164 4.0 8.0 0.00 0.00 0.00 24 1011.2
20260904031629 74 103 4.0 7.0 0.00 0.00 0.00 21 1011.2
20260904030619 72 103 3.0 6.0 0.00 0.00 0.00 23 1011.1
20260904025621 70 89 2.0 8.0 0.00 0.00 0.00 25 1011.0
20260904024614 68 160 4.0 6.0 0.00 0.00 0.00 31 1011.0
20260904023642 69 150 4.0 6.0 0.00 0.00 0.00 31 1011.0
20260904022629 70 355 3.0 5.0 0.00 0.00 0.00 32 1010.9
20260904021619 71 202 1.0 5.0 0.00 0.00 0.00 31 1010.9
20260904020614 72 227 0.0 3.0 0.00 0.00 0.00 27 1010.9
20260904015615 73 227 1.0 3.0 0.00 0.00 0.00 28 1010.9
20260904014626 74 223 1.0 4.0 0.00 0.00 0.00 25 1010.9
20260904013616 77 223 1.0 2.0 0.00 0.00 0.00 24 1010.8
20260904012631 80 223 2.0 5.0 0.00 0.00 0.00 19 1010.9
20260904011621 80 213 0.0 3.0 0.00 0.00 0.00 16 1010.8
20260904010612 80 168 2.0 9.0 0.00 0.00 0.00 16 1010.8
20260904005617 80 198 4.0 10.0 0.00 0.00 0.00 15 1011.0
20260904004648 80 124 3.0 9.0 0.00 0.00 0.00 16 1011.1
20260904003619 81 144 5.0 11.0 0.00 0.00 0.00 15 1011.2
20260904002618 81 165 7.0 17.0 0.00 0.00 0.00 14 1011.1
20260904001628 82 170 5.0 12.0 0.00 0.00 0.00 14 1011.3
20260904000623 82 192 9.0 21.0 0.00 0.00 0.00 14 1011.4
20260903235647 82 141 12.0 17.0 0.00 0.00 0.00 14 1011.4
20260903234617 82 163 10.0 18.0 0.00 0.00 0.00 13 1011.5
20260903233628 82 167 14.0 18.0 0.00 0.00 0.00 12 1011.6
20260903232623 82 150 10.0 21.0 0.00 0.00 0.00 13 1011.8
20260903231614 82 149 11.0 22.0 0.00 0.00 0.00 14 1011.9
20260903230646 82 139 11.0 20.0 0.00 0.00 0.00 13 1011.9
20260903225629 82 204 12.0 21.0 0.00 0.00 0.00 14 1011.8
20260903224644 81 177 8.0 19.0 0.00 0.00 0.00 14 1011.9
20260903223615 81 185 12.0 24.0 0.00 0.00 0.00 14 1012.0
20260903222625 81 180 10.0 17.0 0.00 0.00 0.00 14 1012.3
20260903221616 82 134 6.0 16.0 0.00 0.00 0.00 13 1012.3
20260903220629 81 172 9.0 13.0 0.00 0.00 0.00 14 1012.6
20260903215612 81 147 6.0 20.0 0.00 0.00 0.00 13 1012.6
20260903214623 81 181 7.0 14.0 0.00 0.00 0.00 14 1012.6
20260903213613 80 170 11.0 16.0 0.00 0.00 0.00 14 1012.7
20260903212626 80 192 13.0 18.0 0.00 0.00 0.00 14 1013.1
20260903211616 81 164 12.0 21.0 0.00 0.00 0.00 14 1013.1
20260903210625 81 241 10.0 15.0 0.00 0.00 0.00 14 1013.1
20260903205649 80 196 9.0 16.0 0.00 0.00 0.00 15 1013.4
20260903204621 80 193 11.0 19.0 0.00 0.00 0.00 14 1013.5
20260903203651 79 217 15.0 20.0 0.00 0.00 0.00 14 1013.7
20260903202620 79 207 11.0 16.0 0.00 0.00 0.00 14 1013.8
20260903201629 79 199 10.0 14.0 0.00 0.00 0.00 16 1013.9
20260903200622 79 180 5.0 24.0 0.00 0.00 0.00 15 1013.9
20260903195625 79 188 8.0 20.0 0.00 0.00 0.00 16 1014.1
20260903194615 78 213 7.0 16.0 0.00 0.00 0.00 16 1014.1
20260903193646 78 238 10.0 16.0 0.00 0.00 0.00 16 1014.3
20260903192619 78 194 7.0 18.0 0.00 0.00 0.00 16 1014.3
20260903191629 78 174 6.0 18.0 0.00 0.00 0.00 15 1014.5
20260903190639 78 184 12.0 16.0 0.00 0.00 0.00 16 1014.8
20260903185620 78 188 11.0 19.0 0.00 0.00 0.00 17 1014.7
20260903184614 77 190 12.0 17.0 0.00 0.00 0.00 15 1014.8
20260903183625 77 209 10.0 16.0 0.00 0.00 0.00 16 1015.0
20260903182616 77 179 11.0 15.0 0.00 0.00 0.00 16 1015.1
20260903181627 77 179 11.0 18.0 0.00 0.00 0.00 17 1015.2
20260903180646 76 92 3.0 6.0 0.00 0.00 0.00 20 1015.2
20260903175612 75 153 3.0 10.0 0.00 0.00 0.00 20 1015.3
20260903174624 73 318 4.0 11.0 0.00 0.00 0.00 21 1015.3
20260903173615 71 295 4.0 8.0 0.00 0.00 0.00 24 1015.5
20260903172630 69 236 1.0 6.0 0.00 0.00 0.00 40 1015.6
20260903171642 67 246 2.0 4.0 0.00 0.00 0.00 42 1015.8
20260903170632 66 246 2.0 4.0 0.00 0.00 0.00 44 1015.8
20260903165634 65 245 3.0 4.0 0.00 0.00 0.00 44 1015.8